Wind_Speed
15 16 17 18 18 18 18 16 14 11 9 6 3 4 6 10 12 5 3 5 5 7 4 3 2 4 7 7 5 6 6 9 13 9 7 8 9 6 2 3 4 3 4 9 9
16 16 17 17 18 18 18 15 14 12 8 5 3 9 11 10 2 1 7 5 5 5 4 6 6 8 10 7 6 9 8 7 8 5 3 6 9 9 6 8 7 8 7 8 9
16 16 17 18 18 18 18 16 14 11 7 2 5 9 9 5 5 3 6 3 2 4 4 5 5 9 9 6 9 9 9 4 3 2 1 5 6 4 8 9 9 12 11 9 10
18 16 16 17 17 17 17 16 13 10 5 2 9 10 6 2 1 3 4 2 1 1 4 6 8 10 7 8 7 7 5 4 3 3 3 5 3 6 11 3 4 7 10 9 10
18 17 16 16 17 17 16 14 12 7 2 4 10 10 1 6 3 3 4 2 2 2 5 7 10 10 8 7 6 11 3 4 3 4 5 4 9 10 10 10 7 8 9 8 9
20 19 16 15 15 16 15 13 9 4 2 6 9 7 4 10 6 3 2 1 1 2 4 6 6 6 5 4 9 2 4 7 5 8 6 7 9 5 10 13 13 10 9 9 9
19 20 19 15 15 15 14 13 7 2 3 5 6 4 8 5 4 1 1 0 1 2 2 3 3 7 4 4 3 4 6 7 10 8 4 5 12 13 9 12 17 13 10 10 8
20 19 19 18 15 14 13 11 7 5 5 4 5 5 7 8 4 3 2 2 3 2 4 3 3 4 4 3 5 6 6 8 10 8 5 5 6 8 12 12 17 17 14 11 11
20 21 19 16 18 13 12 9 7 7 7 5 4 6 6 6 4 6 5 3 3 4 3 4 4 2 5 8 5 8 6 9 7 9 4 10 7 9 10 13 15 18 17 10 11
23 21 21 18 16 15 11 7 7 8 8 6 7 5 7 6 8 7 5 6 3 4 4 5 5 7 8 8 2 4 8 5 6 8 10 10 14 7 13 14 13 17 19 14 12
24 24 21 21 16 14 9 4 3 6 14 10 3 3 5 7 7 7 8 6 5 7 8 7 7 8 11 7 5 2 3 5 3 5 5 14 16 14 14 23 18 20 20 14 11
20 24 24 20 19 13 8 5 9 4 10 19 13 9 6 10 7 10 9 8 8 9 5 5 10 5 2 4 4 4 5 7 1 2 5 10 15 13 12 10 12 16 17 12 14
20 21 27 24 19 15 10 10 11 8 7 9 16 15 10 13 9 14 13 6 8 9 10 11 7 5 5 6 6 6 6 4 5 5 14 11 11 7 6 7 6 7 12 15 15
24 21 20 26 14 10 7 6 6 4 5 9 9 9 11 10 7 9 11 5 5 6 4 6 8 6 5 7 5 7 3 1 4 6 3 1 4 10 11 10 9 12 14 15 14
25 23 17 18 11 6 8 4 5 4 5 11 9 9 14 13 14 9 8 6 7 6 4 5 6 7 8 1 3 5 1 3 5 8 9 7 5 7 10 12 11 13 16 15 13
25 24 18 15 16 16 10 5 9 3 8 7 8 10 13 13 7 8 7 3 1 4 4 2 1 3 2 3 0 6 3 4 4 4 3 1 3 8 8 14 15 15 16 15 11
24 23 21 18 10 10 10 10 3 6 3 7 8 11 16 10 10 10 12 10 7 6 8 6 9 4 5 5 3 5 4 2 3 3 2 3 4 7 8 4 13 15 17 15 11
22 25 28 26 20 13 17 5 9 9 16 5 7 12 12 11 10 12 9 11 14 8 3 7 6 11 8 5 2 8 2 3 5 2 3 4 6 2 5 7 6 14 16 15 10
20 24 30 30 22 22 17 8 8 11 8 11 12 12 12 13 3 11 13 9 8 17 9 5 6 5 1 2 4 6 5 3 4 2 4 5 4 9 7 8 10 13 16 16 12
19 32 31 31 27 25 9 18 13 4 4 14 13 14 16 15 12 12 12 4 7 11 2 5 4 5 5 4 1 4 4 2 1 2 4 5 5 3 10 11 11 12 16 16 15
26 15 13 28 33 18 8 11 18 9 8 9 11 11 10 11 14 9 4 3 9 10 6 4 2 6 5 9 9 4 4 1 1 2 3 4 0 5 5 7 11 12 15 15 15
19 6 14 40 5 4 10 13 14 6 12 6 5 9 12 13 12 12 12 2 15 15 9 6 1 4 3 3 3 4 3 7 4 5 1 4 7 3 2 1 3 9 11 12 13
15 4 21 32 6 8 12 13 11 8 8 7 6 7 2 9 4 10 9 4 14 14 11 9 4 4 3 2 3 5 10 4 2 0 9 4 2 4 5 3 3 7 9 11 17
9 5 5 14 8 16 16 12 12 14 4 7 3 4 6 6 2 9 10 5 11 10 1 11 4 4 2 2 4 5 8 15 10 5 7 12 14 7 7 6 7 12 15 18 18
12 2 6 6 11 6 13 11 16 8 8 13 6 12 8 4 8 7 10 7 8 8 7 5 4 3 6 3 4 4 6 13 18 18 10 10 13 14 10 15 17 18 14 13 15
5 4 8 2 15 14 8 12 19 19 10 8 11 17 13 7 9 12 11 8 6 12 6 2 3 3 4 4 8 12 15 17 19 20 22 22 25 20 18 5 6 9 10 13 16
14 11 8 8 8 8 9 17 19 14 14 16 16 9 14 13 2 5 18 12 12 11 6 7 6 4 2 2 4 11 20 23 16 13 18 16 17 14 14 8 10 12 12 15 17
Wind_Direction
347 347 347 348 349 348 348 347 343 333 321 305 309 122 109 122 114 76 148 239 270 246 218 248 229 193 187 203 225 236 247 248 236 245 214 151 203 188 188 173 181 132 97 111 128
341 344 345 347 349 347 345 346 341 334 318 283 175 140 121 123 131 209 240 248 274 239 222 218 204 187 196 209 209 223 236 278 21 30 259 178 224 183 212 195 190 160 132 130 140
338 338 341 343 346 346 343 341 343 339 325 267 180 138 140 127 256 206 235 200 116 134 204 198 196 193 215 223 205 210 252 50 72 90 184 183 222 208 232 210 214 194 167 156 154
335 336 335 337 341 343 342 338 342 345 342 189 164 151 154 336 300 226 214 212 198 199 204 198 196 197 216 211 201 246 259 267 139 170 198 209 264 238 232 254 203 183 166 167 168
319 329 332 333 334 338 337 336 338 351 9 165 168 169 267 251 232 247 233 283 324 289 210 204 207 210 222 226 221 236 221 225 203 205 241 260 245 251 243 218 169 165 167 173 173
318 314 324 329 329 330 331 329 328 350 95 157 177 168 289 266 253 238 259 327 311 230 216 195 222 212 244 221 230 3 225 222 214 226 237 246 245 227 232 206 193 186 181 180 179
306 313 308 318 325 326 326 320 305 261 154 166 190 216 274 270 204 189 35 167 181 194 189 175 177 194 187 183 207 199 230 217 222 214 229 241 253 224 233 204 196 199 188 184 190
298 300 307 305 315 323 322 315 283 231 207 217 228 234 271 250 207 206 134 83 92 91 157 143 159 164 226 132 182 216 236 218 148 180 165 206 275 201 203 197 199 198 194 200 219
293 294 297 303 304 316 320 310 270 235 232 236 242 227 254 233 204 199 168 167 135 109 122 136 154 203 174 204 196 204 262 213 154 202 183 213 291 143 192 203 208 203 210 225 229
294 292 293 296 302 307 315 302 270 242 243 248 237 231 213 218 190 183 184 163 176 167 167 198 214 218 224 208 250 212 226 229 226 175 215 226 244 235 204 204 218 227 228 251 237
304 297 292 294 302 303 305 320 264 236 218 217 243 224 157 166 171 179 185 177 180 219 224 202 239 214 206 227 300 280 252 252 171 117 265 246 254 249 228 226 241 243 245 243 223
298 306 298 291 292 301 286 226 273 258 282 231 230 227 191 178 177 189 174 197 199 226 181 200 239 66 122 171 209 220 248 251 247 195 246 273 263 249 247 251 256 241 224 193 171
288 289 298 298 296 295 261 240 261 277 260 208 216 219 199 193 209 189 183 202 224 225 217 259 51 136 184 189 223 230 261 288 296 307 249 285 255 188 180 184 189 200 171 165 166
276 277 282 296 305 272 269 253 248 195 270 176 196 205 184 182 209 170 189 217 212 236 211 256 122 190 210 242 248 270 59 290 291 304 300 345 302 186 164 168 169 165 164 165 164
267 259 257 279 249 271 261 260 177 127 273 130 144 156 171 185 131 181 181 185 231 178 205 79 171 198 223 333 218 58 38 308 298 281 307 162 249 115 167 181 172 168 166 169 171
258 252 242 242 270 251 260 218 151 187 245 168 148 175 171 198 179 138 170 174 54 190 223 85 113 222 356 107 258 123 233 246 271 272 241 138 257 171 180 204 175 173 174 172 179
247 248 237 235 228 249 210 158 192 207 101 174 188 176 194 178 177 186 182 185 182 178 200 177 194 137 180 175 174 223 255 265 231 215 293 147 240 291 135 193 177 177 181 180 182
246 245 242 231 226 227 176 192 232 215 208 115 163 170 185 172 212 196 191 219 218 230 218 195 196 186 167 243 296 196 293 271 273 290 19 164 233 115 128 154 180 182 183 185 198
253 234 231 224 209 196 177 210 221 231 133 159 150 178 193 185 221 195 217 221 212 201 201 208 143 112 136 162 298 146 211 20 299 194 266 236 227 152 148 178 185 185 188 200 217
244 224 221 233 199 180 193 221 224 285 146 166 198 196 188 182 182 195 195 231 184 204 115 175 121 190 132 170 121 297 123 171 136 262 263 213 268 242 189 195 193 198 206 215 230
230 221 230 223 191 168 205 222 226 220 215 194 225 198 203 173 196 185 215 141 169 172 165 163 232 139 161 205 191 172 201 190 26 274 272 295 180 36 73 181 200 211 217 226 240
230 212 187 193 155 175 218 221 216 230 209 242 291 230 206 173 183 199 203 209 165 162 176 157 128 163 132 83 345 302 214 185 218 180 216 330 277 82 93 93 268 226 233 244 254
223 134 182 182 199 195 211 219 229 208 198 190 231 225 186 177 163 187 182 98 165 179 156 179 177 140 169 172 191 225 192 176 87 350 215 236 240 136 124 145 217 263 277 268 276
206 158 207 194 251 220 197 206 204 215 226 192 198 150 163 205 152 171 158 155 173 184 84 155 193 264 326 78 120 193 212 198 197 208 213 227 272 201 202 214 247 261 267 273 286
229 188 164 187 223 253 197 174 200 200 223 192 191 213 174 161 177 188 149 134 169 167 176 150 202 191 266 190 202 203 187 201 212 222 222 262 264 270 305 310 302 294 293 288 289
209 170 160 237 222 199 227 185 204 207 170 204 231 199 200 169 187 188 160 172 177 177 164 160 157 178 259 223 239 258 244 211 224 236 248 264 272 281 298 324 295 295 293 294 299
234 214 191 182 193 186 211 214 216 206 206 241 213 203 209 206 147 270 179 170 158 153 154 158 156 169 236 138 286 269 247 229 220 218 227 241 252 272 258 265 282 290 291 302 304
Height
1494 1491 1489 1485 1482 1478 1475 1473 1471 1469 1467 1466 1464 1464 1464 1464 1466 1467 1469 1468 1468 1467 1467 1470 1470 1471 1472 1472 1474 1474 1467 1456 1453 1455 1454 1467 1468 1472 1473 1472 1476 1477 1478 1482 1484
1494 1491 1488 1485 1482 1479 1476 1473 1471 1469 1467 1466 1466 1465 1465 1467 1469 1470 1468 1467 1466 1465 1468 1470 1470 1471 1471 1471 1472 1470 1463 1454 1458 1457 1462 1468 1468 1470 1472 1472 1474 1478 1481 1482 1484
1493 1491 1488 1485 1482 1479 1476 1473 1470 1468 1466 1466 1466 1467 1468 1469 1471 1469 1466 1466 1466 1466 1468 1469 1469 1470 1468 1470 1469 1466 1463 1461 1465 1468 1468 1469 1471 1473 1471 1469 1470 1475 1479 1482 1484
1492 1490 1487 1484 1482 1479 1476 1473 1470 1468 1466 1466 1466 1469 1470 1470 1467 1468 1466 1466 1466 1466 1468 1468 1469 1469 1467 1468 1468 1469 1467 1467 1469 1473 1472 1472 1472 1472 1472 1469 1471 1475 1478 1482 1483
1490 1488 1486 1483 1481 1478 1476 1473 1470 1467 1466 1466 1467 1470 1471 1471 1468 1466 1466 1466 1466 1467 1468 1468 1467 1466 1466 1465 1470 1469 1466 1471 1472 1474 1474 1474 1473 1472 1470 1472 1475 1477 1479 1481 1483
1488 1487 1484 1482 1479 1477 1475 1473 1470 1468 1467 1467 1468 1469 1471 1470 1465 1465 1465 1465 1467 1468 1468 1467 1466 1467 1465 1467 1469 1467 1469 1470 1472 1472 1473 1474 1470 1473 1466 1470 1474 1477 1478 1480 1482
1485 1484 1483 1481 1478 1475 1474 1472 1470 1468 1467 1467 1468 1469 1470 1468 1465 1465 1464 1465 1466 1468 1468 1467 1467 1468 1467 1468 1470 1470 1470 1470 1469 1470 1470 1473 1470 1465 1465 1469 1472 1475 1477 1480 1482
1482 1480 1480 1480 1477 1473 1471 1470 1469 1468 1467 1468 1468 1469 1466 1463 1464 1464 1465 1466 1466 1467 1468 1467 1467 1469 1468 1470 1469 1468 1467 1462 1460 1468 1470 1474 1459 1456 1462 1466 1468 1472 1475 1478 1480
1478 1477 1476 1476 1475 1471 1468 1467 1467 1467 1467 1467 1468 1469 1463 1461 1463 1464 1464 1466 1467 1467 1468 1468 1468 1467 1470 1464 1462 1461 1449 1451 1463 1466 1466 1470 1459 1458 1463 1465 1466 1468 1471 1472 1476
1475 1474 1473 1472 1472 1470 1467 1465 1466 1466 1466 1467 1467 1469 1462 1461 1461 1463 1463 1464 1466 1468 1469 1469 1467 1462 1462 1458 1447 1442 1452 1452 1450 1463 1467 1463 1461 1457 1462 1463 1463 1464 1466 1468 1472
1471 1471 1469 1469 1468 1467 1466 1466 1469 1467 1464 1458 1456 1455 1457 1459 1460 1462 1463 1464 1465 1467 1462 1465 1461 1453 1446 1453 1454 1454 1453 1453 1451 1461 1467 1459 1454 1450 1452 1456 1457 1460 1462 1465 1469
1467 1467 1466 1465 1464 1465 1462 1464 1463 1463 1457 1453 1454 1455 1456 1457 1459 1461 1462 1464 1463 1458 1460 1463 1455 1451 1456 1460 1460 1459 1456 1450 1452 1462 1465 1453 1447 1444 1446 1451 1455 1455 1457 1463 1468
1464 1462 1461 1462 1461 1462 1458 1459 1459 1462 1459 1448 1448 1451 1453 1456 1454 1456 1460 1460 1458 1455 1456 1451 1454 1459 1460 1460 1459 1456 1457 1454 1458 1458 1454 1455 1439 1443 1451 1455 1457 1456 1458 1463 1468
1459 1458 1456 1458 1463 1459 1457 1455 1457 1460 1457 1440 1445 1445 1449 1452 1453 1453 1457 1459 1458 1452 1454 1451 1457 1461 1460 1458 1458 1453 1462 1464 1464 1460 1444 1454 1434 1435 1445 1450 1454 1457 1459 1463 1467
1453 1453 1452 1452 1456 1459 1456 1455 1457 1460 1456 1435 1440 1442 1445 1448 1447 1453 1455 1457 1452 1453 1456 1454 1459 1461 1458 1455 1459 1461 1465 1465 1465 1459 1455 1447 1451 1429 1439 1445 1450 1454 1458 1462 1466
1446 1446 1446 1448 1449 1453 1454 1456 1458 1460 1449 1434 1437 1439 1442 1444 1446 1451 1453 1455 1456 1456 1456 1454 1462 1460 1457 1464 1464 1465 1464 1464 1464 1457 1458 1444 1450 1428 1436 1434 1443 1451 1457 1460 1464
1439 1439 1439 1442 1443 1448 1452 1456 1460 1449 1428 1429 1430 1433 1433 1437 1442 1444 1448 1449 1443 1455 1449 1456 1457 1462 1463 1463 1467 1465 1459 1452 1453 1457 1443 1454 1454 1419 1429 1435 1436 1447 1453 1458 1462
1431 1433 1431 1435 1436 1445 1449 1454 1451 1408 1410 1420 1424 1428 1428 1429 1434 1439 1440 1439 1440 1440 1438 1442 1449 1458 1461 1458 1454 1459 1457 1451 1450 1433 1430 1456 1439 1421 1431 1439 1441 1445 1451 1456 1459
1423 1424 1424 1427 1431 1437 1445 1443 1417 1409 1400 1417 1425 1425 1425 1427 1432 1435 1434 1428 1428 1438 1440 1441 1447 1461 1462 1463 1463 1460 1461 1465 1458 1456 1451 1419 1419 1430 1438 1441 1443 1446 1450 1454 1457
1416 1415 1415 1422 1424 1430 1436 1422 1411 1406 1408 1409 1408 1408 1412 1421 1429 1432 1426 1421 1430 1434 1439 1438 1452 1458 1465 1465 1466 1463 1464 1462 1466 1458 1443 1413 1420 1411 1431 1436 1441 1444 1447 1451 1453
1409 1411 1409 1416 1418 1426 1424 1412 1409 1407 1411 1408 1402 1404 1401 1410 1419 1425 1422 1427 1428 1437 1441 1442 1443 1461 1464 1459 1451 1466 1460 1464 1466 1465 1442 1428 1408 1422 1423 1431 1436 1441 1445 1448 1450
1402 1399 1401 1407 1417 1418 1413 1405 1403 1405 1409 1409 1407 1400 1399 1406 1414 1419 1417 1420 1427 1435 1437 1443 1448 1445 1447 1460 1462 1456 1457 1459 1451 1463 1464 1459 1433 1428 1432 1435 1436 1439 1442 1445 1447
1394 1393 1398 1400 1400 1404 1400 1402 1402 1404 1404 1406 1406 1404 1404 1406 1420 1412 1413 1427 1429 1432 1432 1440 1443 1448 1453 1461 1464 1461 1458 1465 1468 1461 1450 1443 1420 1432 1435 1437 1439 1440 1441 1443 1444
1387 1391 1395 1394 1395 1392 1393 1396 1400 1402 1400 1401 1403 1407 1408 1408 1411 1412 1417 1428 1431 1432 1436 1437 1436 1434 1422 1441 1450 1461 1458 1456 1457 1450 1433 1430 1422 1423 1430 1433 1434 1436 1437 1437 1438
1379 1372 1376 1386 1389 1390 1388 1394 1395 1400 1401 1400 1404 1402 1403 1411 1411 1414 1417 1429 1432 1434 1436 1440 1440 1437 1439 1440 1448 1447 1456 1457 1455 1440 1433 1415 1415 1415 1421 1425 1427 1429 1432 1434 1435
1370 1371 1376 1378 1380 1390 1385 1384 1384 1389 1398 1395 1394 1396 1398 1405 1401 1405 1412 1418 1420 1431 1437 1443 1439 1440 1437 1438 1441 1442 1438 1447 1449 1444 1437 1431 1424 1423 1424 1425 1428 1429 1431 1432 1432
1361 1366 1370 1371 1376 1382 1380 1376 1379 1385 1391 1390 1391 1393 1395 1397 1399 1400 1406 1409 1411 1422 1433 1439 1440 1442 1427 1443 1443 1433 1417 1419 1424 1429 1434 1436 1418 1421 1421 1425 1427 1428 1429 1428 1428